| time (UTC) | temp C | wind direction | speed KPH | gust KPH | rain 1hr cm | rain 24hr cm | rain mn cm | humidity % | barometer mb |
| 20260506201554 | 7 | 22 | 6.4 | 20.9 | 0.20 | 2.34 | 2.34 | 93 | 1005.6 |
| 20260506200137 | 8 | 67 | 4.8 | 14.5 | 0.20 | 2.34 | 2.34 | 93 | 1005.2 |
| 20260506194604 | 8 | 16 | 3.2 | 12.9 | 0.20 | 2.44 | 2.34 | 93 | 1005.6 |
| 20260506193055 | 8 | 148 | 4.8 | 12.9 | 0.13 | 2.31 | 2.21 | 93 | 1005.6 |
| 20260506191557 | 9 | 352 | 3.2 | 14.5 | 0.18 | 2.24 | 2.13 | 93 | 1005.6 |
| 20260506190056 | 10 | 43 | 4.8 | 11.3 | 0.30 | 2.24 | 2.13 | 93 | 1005.2 |
| 20260506184556 | 10 | 97 | 1.6 | 6.4 | 0.36 | 2.24 | 2.13 | 93 | 1005.3 |
| 20260506183055 | 10 | 360 | 3.2 | 11.3 | 0.41 | 2.18 | 2.08 | 93 | 1005.3 |
| 20260506181557 | 10 | 226 | 3.2 | 6.4 | 0.33 | 2.06 | 1.96 | 93 | 1005.4 |
| 20260506180106 | 10 | 341 | 3.2 | 6.4 | 0.28 | 1.93 | 1.83 | 93 | 1005.5 |
| 20260506174558 | 10 | 352 | 0.0 | 3.2 | 0.36 | 1.88 | 1.78 | 93 | 1005.3 |
| 20260506173116 | 11 | 5 | 3.2 | 4.8 | 0.36 | 1.78 | 1.68 | 93 | 1005.4 |
| 20260506171601 | 11 | 350 | 1.6 | 11.3 | 0.41 | 1.73 | 1.63 | 93 | 1005.5 |
| 20260506170059 | 11 | 5 | 1.6 | 4.8 | 0.38 | 1.65 | 1.55 | 93 | 1005.6 |
| 20260506164556 | 11 | 30 | 1.6 | 6.4 | 0.33 | 1.52 | 1.42 | 93 | 1006.1 |
| 20260506163107 | 11 | 0 | 1.6 | 4.8 | 0.33 | 1.42 | 1.32 | 93 | 1006.2 |
| 20260506161558 | 12 | 298 | 1.6 | 3.2 | 0.33 | 1.32 | 1.22 | 93 | 1006.2 |
| 20260506160107 | 12 | 46 | 1.6 | 4.8 | 0.36 | 1.27 | 1.17 | 93 | 1006.4 |
| 20260506154558 | 12 | 47 | 0.0 | 3.2 | 0.38 | 1.19 | 1.09 | 93 | 1006.6 |
| 20260506153056 | 12 | 81 | 1.6 | 4.8 | 0.38 | 1.09 | 0.99 | 93 | 1006.7 |
| 20260506151555 | 12 | 360 | 0.0 | 6.4 | 0.36 | 0.99 | 0.89 | 93 | 1006.8 |
| 20260506144556 | 12 | 360 | 1.6 | 4.8 | 0.33 | 0.81 | 0.71 | 93 | 1007.1 |
| 20260506143056 | 12 | 351 | 0.0 | 6.4 | 0.25 | 0.71 | 0.61 | 92 | 1007.5 |
| 20260506141555 | 12 | 0 | 0.0 | 3.2 | 0.23 | 0.64 | 0.53 | 92 | 1007.6 |
| 20260506140056 | 13 | 203 | 0.0 | 3.2 | 0.20 | 0.56 | 0.46 | 93 | 1007.9 |
| 20260506134618 | 13 | 121 | 0.0 | 3.2 | 0.18 | 0.48 | 0.38 | 93 | 1007.4 |
| 20260506133056 | 13 | 0 | 0.0 | 3.2 | 0.20 | 0.46 | 0.36 | 93 | 1007.1 |
| 20260506131608 | 13 | 0 | 1.6 | 3.2 | 0.23 | 0.41 | 0.30 | 92 | 1007.4 |
| 20260506130055 | 13 | 40 | 0.0 | 3.2 | 0.20 | 0.36 | 0.25 | 92 | 1007.5 |
| 20260506124605 | 13 | 165 | 0.0 | 3.2 | 0.18 | 0.30 | 0.20 | 92 | 1007.7 |
| 20260506123101 | 13 | 70 | 0.0 | 3.2 | 0.13 | 0.25 | 0.15 | 91 | 1007.7 |
| 20260506121609 | 13 | 0 | 0.0 | 3.2 | 0.05 | 0.18 | 0.08 | 91 | 1007.9 |
| 20260506114556 | 12 | 352 | 1.6 | 3.2 | 0.03 | 0.13 | 0.03 | 90 | 1007.5 |
| 20260506113058 | 12 | 0 | 0.0 | 3.2 | 0.03 | 0.13 | 0.03 | 90 | 1007.3 |
| 20260506111612 | 12 | 83 | 0.0 | 3.2 | 0.03 | 0.13 | 0.03 | 89 | 1007.4 |
| 20260506110058 | 12 | 0 | 0.0 | 3.2 | 0.00 | 0.10 | 0.00 | 89 | 1007.4 |
| 20260506104559 | 12 | 0 | 1.6 | 6.4 | 0.00 | 0.30 | 0.00 | 89 | 1007.4 |
| 20260506103101 | 12 | 32 | 0.0 | 3.2 | 0.00 | 0.30 | 0.00 | 88 | 1007.2 |
| 20260506101557 | 12 | 0 | 0.0 | 3.2 | 0.00 | 0.30 | 0.00 | 87 | 1007.2 |
| 20260506100101 | 12 | 0 | 0.0 | 3.2 | 0.00 | 0.30 | 0.00 | 87 | 1007.2 |
| 20260506094555 | 12 | 0 | 0.0 | 3.2 | 0.00 | 0.30 | 0.00 | 87 | 1007.1 |
| 20260506093059 | 12 | 0 | 0.0 | 3.2 | 0.00 | 0.30 | 0.00 | 87 | 1007.0 |
| 20260506091555 | 12 | 0 | 0.0 | 3.2 | 0.00 | 0.30 | 0.00 | 86 | 1007.1 |
| 20260506090056 | 12 | 162 | 0.0 | 3.2 | 0.00 | 0.30 | 0.00 | 86 | 1007.3 |
| 20260506084601 | 12 | 0 | 0.0 | 3.2 | 0.00 | 0.30 | 0.00 | 85 | 1007.2 |
| 20260506083114 | 12 | 0 | 0.0 | 3.2 | 0.00 | 0.30 | 0.00 | 85 | 1007.3 |
| 20260506081554 | 12 | 218 | 0.0 | 3.2 | 0.00 | 0.30 | 0.00 | 85 | 1007.6 |
| 20260506073056 | 13 | 258 | 1.6 | 4.8 | 0.00 | 0.30 | 0.00 | 84 | 1008.0 |
| 20260506071556 | 13 | 306 | 1.6 | 6.4 | 0.00 | 0.30 | 0.00 | 84 | 1008.0 |
| 20260506070126 | 13 | 218 | 1.6 | 6.4 | 0.00 | 0.30 | 0.00 | 84 | 1008.0 |
| 20260506061556 | 14 | 202 | 1.6 | 8.0 | 0.00 | 0.30 | 0.00 | 86 | 1008.3 |
| 20260506050109 | 16 | 135 | 0.0 | 3.2 | 0.00 | 0.30 | 0.00 | 76 | 1008.2 |
| 20260506044602 | 16 | 246 | 0.0 | 3.2 | 0.00 | 0.30 | 0.00 | 77 | 1008.1 |
| 20260506043058 | 16 | 294 | 1.6 | 4.8 | 0.00 | 0.30 | 0.00 | 79 | 1008.3 |
| 20260506041603 | 16 | 293 | 1.6 | 3.2 | 0.00 | 0.30 | 0.00 | 78 | 1008.3 |
| 20260506034601 | 17 | 196 | 3.2 | 8.0 | 0.00 | 0.30 | 0.30 | 78 | 1008.1 |
| 20260506033059 | 17 | 270 | 1.6 | 8.0 | 0.00 | 0.30 | 0.30 | 78 | 1008.2 |
| 20260506031555 | 17 | 190 | 1.6 | 6.4 | 0.00 | 0.30 | 0.30 | 78 | 1008.1 |
| 20260506030059 | 17 | 155 | 1.6 | 4.8 | 0.00 | 0.30 | 0.30 | 78 | 1007.7 |
| 20260506024601 | 17 | 197 | 0.0 | 4.8 | 0.00 | 0.30 | 0.30 | 77 | 1007.8 |
| 20260506023057 | 17 | 196 | 1.6 | 6.4 | 0.00 | 0.30 | 0.30 | 76 | 1007.6 |
| 20260506021558 | 17 | 188 | 1.6 | 6.4 | 0.00 | 0.30 | 0.30 | 75 | 1007.7 |
| 20260506020108 | 17 | 144 | 1.6 | 4.8 | 0.00 | 0.30 | 0.30 | 75 | 1007.6 |
| 20260506014612 | 17 | 242 | 0.0 | 6.4 | 0.00 | 0.30 | 0.30 | 76 | 1007.4 |
| 20260506013057 | 17 | 150 | 1.6 | 4.8 | 0.00 | 0.30 | 0.30 | 76 | 1007.1 |
| 20260506011619 | 17 | 170 | 0.0 | 4.8 | 0.00 | 0.30 | 0.30 | 77 | 1006.9 |
| 20260506010056 | 17 | 227 | 0.0 | 6.4 | 0.00 | 0.30 | 0.30 | 77 | 1006.7 |
| 20260506004605 | 17 | 161 | 3.2 | 9.7 | 0.00 | 0.30 | 0.30 | 76 | 1006.9 |
| 20260506003058 | 17 | 154 | 3.2 | 9.7 | 0.00 | 0.30 | 0.30 | 75 | 1006.5 |
| 20260506001602 | 17 | 169 | 1.6 | 4.8 | 0.00 | 0.30 | 0.30 | 74 | 1005.9 |
| 20260506000120 | 17 | 207 | 1.6 | 6.4 | 0.00 | 0.30 | 0.30 | 73 | 1006.1 |
| 20260505234557 | 18 | 153 | 1.6 | 9.7 | 0.00 | 0.30 | 0.30 | 71 | 1005.9 |
| 20260505233100 | 18 | 200 | 4.8 | 12.9 | 0.00 | 0.30 | 0.30 | 69 | 1006.0 |
| 20260505231614 | 18 | 125 | 4.8 | 14.5 | 0.00 | 0.30 | 0.30 | 67 | 1005.4 |
| 20260505230107 | 18 | 305 | 11.3 | 20.9 | 0.00 | 0.30 | 0.30 | 67 | 1005.1 |
| 20260505224601 | 18 | 290 | 9.7 | 17.7 | 0.00 | 0.30 | 0.30 | 68 | 1005.0 |
| 20260505223103 | 18 | 263 | 11.3 | 25.7 | 0.00 | 0.30 | 0.30 | 66 | 1005.2 |
| 20260505221601 | 18 | 280 | 12.9 | 33.8 | 0.00 | 0.30 | 0.30 | 67 | 1005.5 |
| 20260505220058 | 19 | 270 | 17.7 | 33.8 | 0.00 | 0.30 | 0.30 | 62 | 1005.6 |
| 20260505214557 | 20 | 261 | 14.5 | 29.0 | 0.00 | 0.30 | 0.30 | 55 | 1005.2 |
| 20260505213057 | 20 | 323 | 11.3 | 24.1 | 0.00 | 0.30 | 0.30 | 57 | 1004.4 |
| 20260505211554 | 20 | 294 | 12.9 | 37.0 | 0.00 | 0.30 | 0.30 | 56 | 1004.6 |
| 20260505210057 | 22 | 269 | 11.3 | 32.2 | 0.00 | 0.30 | 0.30 | 55 | 1004.8 |
| 20260505204602 | 22 | 262 | 12.9 | 20.9 | 0.00 | 0.30 | 0.30 | 60 | 1004.0 |
| 20260505203103 | 21 | 269 | 6.4 | 17.7 | 0.10 | 0.30 | 0.30 | 63 | 1003.4 |